Find Starlink 30758

NORAD ID: 58133 Int'l Des: 2023-162 Owner: SPXS Country: US Constellation: starlink operational
LEOCIRCULAR

現在のビュー

3D地球を読み込み中...

About Starlink 30758

Starlink 30758 (NORAD 58133) is a starlink constellation satellite (v2 mini) launched Oct 22, 2023 by SPXS of US. It operates in LEO, CIRCULAR orbit with a mass of 730.00 kg.

Starlink 30758について

説明を読み込み中...

次回通過

Passes for default location (London). Set your location on the main map for personalized predictions.

高度履歴

Loading altitude history...

軌道要素

1 58133U 23162R 26167.60788661 .00000567 00000-0 30126-4 0 9992
2 58133 43.0013 290.5921 0001089 245.4386 114.6353 15.27578828147470
Epoch: Jun 16, 2026 • Age: 4 hours

現在のステータス

高度 486.9 km
速度 7.63 km/s
衛星直下点 42.92°N, 164.04°W
打ち上げ日 Oct 22, 2023
運用期間 2.6 years
タイプ internet

技術仕様

分類 Payload
質量 730.00 kg
乾燥質量 700.00 kg
総質量 730.00 kg
長さ 0.30 m
直径 4.10 m
スパン 29.00 m
形状 Box + pan
製造者 SPXS
バスタイプ Starlink V2M
フェーズステータス In Orbit
所有者/国 SPXS/US

Most Searched